Flag for U.S.A. Weather past 2 weeks in Savannah, Georgia, U.S.A.

Now
80 °F

Sunny.


Feels Like: 83 °F
Forecast: 72 / 89 °F
Wind: 3 mph from Southeast

Location: Hunter U. S. Army Airfield

Current Time: Aug 28, 2014 at 8:28:42 PM

Latest Report: Aug 28, 2014 at 7:58 PM


Visibility: 10 mi

Pressure: 29.98 "Hg

Humidity: 70%

Dew point: 69 °F

Location of SavannahLocation

Historic Weather in Savannah — Graph

°F

Savannah temperature yesterday

Maximum temperature yesterday: 88 °F (at 4:58 PM)
Minimum temperature yesterday: 69 °F (at 6:58 AM)
Average temperature yesterday: 78 °F

Past Weeks' High & Low Weather Summary

 TemperatureHumidityPressure
High99 °F (Aug 22, 4:58 PM)100% (Aug 14, 4:58 AM)30.10 "Hg (Aug 14, 4:58 AM)
Low65 °F (Aug 28, 6:58 AM)35% (Aug 23, 3:58 PM)29.81 "Hg (Aug 24, 4:58 AM)
Average82 °F73%29.97 "Hg
* Reported Aug 13 6:58 PM — Aug 28 6:58 PM, Savannah, Weather by CustomWeather, © 2014

Note: Actual official high and low records may vary slightly from our data, if they occured in-between our weather recording intervals... More about our weather records

Advertising

Savannah weather history for previous 24 hours

 ConditionsComfort  
Time TempWeatherWind HumidityBarometerVisibility
6:58 PM
Aug 28
83 °FSunny.8 mph60%29.98 "Hg10 mi
5:58 PM86 °FSunny.7 mph52%29.99 "Hg10 mi
4:58 PM88 °FSunny.8 mph44%29.99 "Hg10 mi
3:58 PM89 °FSunny.8 mph39%29.99 "Hg10 mi
2:58 PM89 °FSunny.9 mph44%30.00 "Hg10 mi
1:58 PM90 °FSunny.10 mph38%30.01 "Hg10 mi
12:58 PM88 °FSunny.7 mph42%30.03 "Hg10 mi
11:58 AM86 °FSunny.3 mph49%30.04 "Hg10 mi
10:58 AM83 °FSunny.6 mph60%30.05 "Hg10 mi
9:58 AM79 °FSunny.6 mph71%30.05 "Hg10 mi
8:58 AM73 °FSunny.5 mph82%30.05 "Hg10 mi
7:58 AM67 °FSunny.2 mph94%30.04 "Hg10 mi
6:58 AM65 °FClear.3 mph98%30.02 "Hg10 mi
5:58 AM65 °FClear.2 mph98%30.00 "Hg10 mi
4:58 AM66 °FClear.3 mph98%30.00 "Hg10 mi
3:58 AM66 °FClear.5 mph98%30.00 "Hg10 mi
2:58 AM67 °FClear.5 mph96%30.00 "Hg10 mi
1:58 AM67 °FClear.2 mph93%30.00 "Hg10 mi
12:58 AM67 °FClear.No wind90%30.01 "Hg10 mi
11:58 PM
Aug 27
70 °FClear.No wind85%30.01 "Hg10 mi
10:58 PM72 °FClear.No wind81%30.01 "Hg10 mi
9:58 PM76 °FClear.3 mph70%30.01 "Hg10 mi
8:58 PM77 °FClear.5 mph66%29.99 "Hg10 mi
Weather by CustomWeather, © 2014

See weather overviewHow to use our weather pages